Regional Weather Roundup
Issued by NWS

Home | Current Version | Previous Version | Graphics & Text | Print | Product List | Glossary On
Versions: 1 2 3 4 5 6 7 8 9 10 11 12 13 14 15 16 17 18 19 20 21 22 23 24 25 26 27
000
ASUS45 KPSR 182010
RWRAZ

ARIZONA HOURLY REGIONAL WEATHER ROUNDUP
NATIONAL WEATHER SERVICE PHOENIX AZ
100 PM MST WED OCT 18 2017

NOTE: FAIR INDICATES FEW OR NO CLOUDS BELOW 12,000 FEET WITH NO
SIGNIFICANT WEATHER AND/OR OBSTRUCTIONS TO VISIBILITY.

AZZ001>003-036-182100-
NORTHWEST ARIZONA

CITY           SKY/WX    TMP DP  RH WIND       PRES   REMARKS
BULLHEAD CITY  CLOUDY    84  14   7 N16       29.92F
KINGMAN        CLOUDY    82  27  13 SW12      30.07F
$$

AZZ004>008-015-016-018-182100-
NORTH CENTRAL ARIZONA

CITY           SKY/WX    TMP DP  RH WIND       PRES   REMARKS
GRAND CANYON   PTSUNNY   72  23  16 SW12      30.26F
WILLIAMS       CLOUDY    72  23  16 W9G16     30.26F
PRESCOTT       PTSUNNY   79  30  16 W3        30.16F
FLAGSTAFF      MOSUNNY   71  28  20 S10       30.27F
PAYSON           N/A     79  32  18 SW9G16    30.18F
PAGE           PTSUNNY   70  22  16 N5        30.13F
$$

AZZ009>014-017-182100-
NORTHEAST ARIZONA

CITY           SKY/WX    TMP DP  RH WIND       PRES   REMARKS
WINSLOW        SUNNY     80  26  13 E8        30.15F
SAINT JOHNS    SUNNY     77  32  19 N6        30.18F
WINDOW ROCK    SUNNY     75  25  15 S10       30.25F
SHOW LOW       MOSUNNY   73  28  19 VRB6      30.25F
$$

AZZ540-542>544-546-548-182100-
GREATER PHOENIX AREA

CITY           SKY/WX    TMP DP  RH WIND       PRES   REMARKS
PHOENIX        PTSUNNY   93  44  18 SW5       29.90F
BUCKEYE        PTSUNNY   90  75  62 S3        29.92F HX 100
GLENDALE       PTSUNNY   91  45  19 CALM      29.92F
LUKE AFB       PTSUNNY   91  45  19 S3        29.89F
DEER VALLEY    PTSUNNY   90  42  18 SW7       29.92F
SCOTTSDALE     MOSUNNY   92  40  16 S6        29.94F
MESA-FALCON    MOSUNNY   91  45  19 SW7       29.93F
MESA-GATEWAY   MOSUNNY   91  43  18 CALM      29.94F
CHANDLER       SUNNY     91  41  17 W3        29.93F
$$

AZZ539-553-182100-
SOUTHWEST MARICOPA COUNTY AND PINAL COUNTY

CITY           SKY/WX    TMP DP  RH WIND       PRES   REMARKS
CASA GRANDE    NOT AVBL
GILA BEND      PTSUNNY   93  41  16 NW1       29.89F
$$

AZZ503-504-507>509-182100-
SOUTHEAST ARIZONA

CITY           SKY/WX    TMP DP  RH WIND       PRES   REMARKS
TUCSON         SUNNY     94  37  13 N5        30.01F
DAVIS-MONTHAN  MOSUNNY   93  36  13 VRB6      29.98F
RYAN FIELD     SUNNY     93  37  14 NW5       30.00F
NOGALES        SUNNY     92  38  15 VRB7      30.07F
SIERRA VISTA   MOSUNNY   86  39  19 NE6       30.13F
DOUGLAS        MOSUNNY   87  41  19 VRB5      30.08F
SAFFORD        MOSUNNY   88  41  19 CALM      30.02F
$$

AZZ532-182100-
SOUTHWEST ARIZONA

CITY           SKY/WX    TMP DP  RH WIND       PRES   REMARKS
YUMA           NOT AVBL
$$

CAZ041-043-047-048-061-525>527-560>570-182100-
SOUTHERN CALIFORNIA

CITY           SKY/WX    TMP DP  RH WIND       PRES   REMARKS
DOWNTOWN L.A.  SUNNY     85  58  39 CALM      29.92F
L.A. AIRPORT   MOSUNNY   80  61  52 W9        29.94F
SAN DIEGO      MOSUNNY   74  63  68 SW9       29.96F
BURBANK        SUNNY     86  44  23 VRB3      29.94F
ONTARIO        MOSUNNY   88  33  14 VRB5      29.94F
RIVERSIDE      MOSUNNY   88  37  16 W5        29.93F
PALM SPRINGS   SUNNY     97  34  11 CALM      29.87F
EL CENTRO NAS  MOSUNNY   95  34  11 E7        29.86F
IMPERIAL       PTSUNNY   94  40  15 MISG      29.84F
BLYTHE         SUNNY     87  34  15 E6        29.89F
NEEDLES        CLOUDY    86  18   8 N8        29.95F
$$

NVZ020-UTZ003-182100-
SOUTHERN NEVADA-UTAH

CITY           SKY/WX    TMP DP  RH WIND       PRES   REMARKS
LAS VEGAS      PTSUNNY   78  17  10 NE5       30.02F
SALT LAKE CITY MOSUNNY   68  29  23 CALM      30.18F
$$

NMZ009-TXZ055-182100-
NEW MEXICO-WEST TEXAS

CITY           SKY/WX    TMP DP  RH WIND       PRES   REMARKS
ALBUQUERQUE    CLOUDY    73  10   9 CALM      30.20F
EL PASO        PTSUNNY   83  48  29 SW7       30.09F
$$


........................KEY........................
SKY/WX - SKY CONDITION/WEATHER
TMP    - TEMPERATURE IN FAHRENHEIT
DP     - DEW POINT IN FAHRENHEIT
RH     - RELATIVE HUMIDITY IN PERCENT
WIND   - DIRECTION AND SPEED IN MILES PER HOUR (MPH)
VRB    - VARIABLE WIND DIRECTION
PRES   - MEAN SEA LEVEL PRESSURE IN INCHES OF MERCURY
         F - FALLING PRESSURE   R - RISING PRESSURE
         S - STEADY PRESSURE
VSB    - VISIBILITY IN MILES
HX     - HEAT INDEX IN FAHRENHEIT
WCI    - WIND CHILL INDEX IN FAHRENHEIT
TC     - TEMPERATURE IN CELSIUS WHICH IS ALSO KNOWN AS
         TEMPERATURE IN CENTIGRADE
AFB    - AIR FORCE BASE
         LUKE AFB IS LUKE AIR FORCE BASE
         DAVIS-MONTHAN IS DAVIS-MONTHAN AIR FORCE BASE
NAS    - NAVAL AIR STATION
         EL CENTRO NAS IS EL CENTRO NAVAL AIR STATION
N/A    - NOT AVAILABLE





USA.gov is the U.S. government's official web portal to all federal, state and local government web resources and services.